This is the latest recevied weather packets stored in our database for station/object EA1GEC-10. If no packets are shown the sender has not sent any weather packets the latest 10 day(s).
| Time | Temp. | Humidity | Pressure | Rain* | Wind** | Luminosity | Snow |
|---|---|---|---|---|---|---|---|
| 1777810984 | 15.56° C | 63% | 1019.9 hPa | - | - | - | - |
| 1777810084 | 15.56° C | 60% | 1019.9 hPa | - | - | - | - |
| 1777809184 | 18.33° C | 57% | 1020 hPa | - | - | - | - |
| 1777808284 | 18.89° C | 61% | 1020 hPa | - | - | - | - |
| 1777807384 | 16.67° C | 63% | 1020.2 hPa | - | - | - | - |
| 1777806484 | 17.22° C | 65% | 1020.5 hPa | - | - | - | - |
| 1777805584 | 15.56° C | 65% | 1020.4 hPa | - | - | - | - |
| 1777804684 | 16.67° C | 66% | 1020.2 hPa | - | - | - | - |
| 1777803784 | 15° C | 66% | 1020.3 hPa | - | - | - | - |
| 1777802884 | 15.56° C | 66% | 1020.3 hPa | - | - | - | - |
| 1777801984 | 16.11° C | 66% | 1020.2 hPa | - | - | - | - |
| 1777801083 | 15° C | 68% | 1020.2 hPa | - | - | - | - |
| 1777800183 | 15° C | 68% | 1020.3 hPa | - | - | - | - |
| 1777799283 | 15° C | 68% | 1020.2 hPa | - | - | - | - |
| 1777798383 | 16.11° C | 68% | 1020.3 hPa | - | - | - | - |
| 1777797483 | 15.56° C | 69% | 1020.4 hPa | - | - | - | - |
| 1777796583 | 15.56° C | 70% | 1020.5 hPa | - | - | - | - |
| 1777795683 | 15° C | 72% | 1020.5 hPa | - | - | - | - |
| 1777794783 | 15° C | 74% | 1020.5 hPa | - | - | - | - |
| 1777793883 | 14.44° C | 75% | 1020.4 hPa | - | - | - | - |
| 1777792983 | 14.44° C | 76% | 1020.3 hPa | - | - | - | - |
| 1777792083 | 13.89° C | 78% | 1020.3 hPa | - | - | - | - |
| 1777791192 | 13.33° C | 80% | 1020.4 hPa | - | - | - | - |
| 1777790614 | 13.89° C | 81% | 1020.3 hPa | - | - | - | - |
| 1777789714 | 13.89° C | 82% | 1020.3 hPa | - | - | - | - |
* Rain since midnight (hover to see other rain measurements)
** Current wind speed in m/s (hover to see current wind gust speed)